Time,TemperatureF,DewpointF,PressureIn,WindDirection,WindDirectionDegrees,WindSpeedMPH,WindSpeedGustMPH,Humidity,HourlyPrecipIn,Conditions,Clouds,dailyrainin,SolarRadiationWatts/m^2,SoftwareType,DateUTC
2013-03-05 00:00:00,23.7,21.7,29.91,WSW,245,10.4,10.4,92,0.00,-SN,,0.03,0.0,WeatherDisplay:10.37,2013-03-05 05:00:00,
2013-03-05 00:05:00,23.7,21.7,29.91,WNW,293,5.8,5.8,92,0.00,-SN,,0.00,0.0,WeatherDisplay:10.37,2013-03-05 05:05:00,
2013-03-05 00:10:00,23.8,21.8,29.91,SW,233,10.4,10.4,92,0.00,-SN,,0.00,0.0,WeatherDisplay:10.37,2013-03-05 05:10:00,
2013-03-05 00:15:00,23.8,21.8,29.91,WSW,248,7.0,7.0,92,0.00,-SN,,0.00,0.0,WeatherDisplay:10.37,2013-03-05 05:15:00,
2013-03-05 00:20:00,23.7,21.7,29.91,SW,223,11.5,11.5,92,0.00,-SN,,0.00,0.0,WeatherDisplay:10.37,2013-03-05 05:20:00,
2013-03-05 00:25:00,23.8,21.8,29.91,SW,214,8.1,8.1,92,0.00,-SN,,0.00,0.0,WeatherDisplay:10.37,2013-03-05 05:25:00,
2013-03-05 00:30:00,23.7,21.7,29.91,SW,216,9.2,9.2,92,0.00,-SN,,0.00,0.0,WeatherDisplay:10.37,2013-03-05 05:30:00,
2013-03-05 00:35:00,23.7,21.7,29.92,WSW,246,8.1,8.1,92,0.00,-SN,,0.00,0.0,WeatherDisplay:10.37,2013-03-05 05:35:00,
2013-03-05 00:40:00,23.7,21.7,29.92,WSW,256,9.2,9.2,92,0.00,-SN,,0.00,0.0,WeatherDisplay:10.37,2013-03-05 05:40:00,
2013-03-05 00:45:00,23.8,21.8,29.92,WSW,243,5.8,5.8,92,0.00,-SN,,0.00,0.0,WeatherDisplay:10.37,2013-03-05 05:45:00,
2013-03-05 00:50:00,23.8,21.8,29.92,WSW,254,9.2,9.2,92,0.00,-SN,,0.00,0.0,WeatherDisplay:10.37,2013-03-05 05:50:00,
2013-03-05 00:55:00,23.8,21.6,29.92,SW,234,9.2,9.2,91,0.00,-SN,,0.00,0.0,WeatherDisplay:10.37,2013-03-05 05:55:00,
2013-03-05 01:00:00,23.8,21.6,29.93,WSW,251,5.8,5.8,91,0.00,-SN,,0.00,0.0,WeatherDisplay:10.37,2013-03-05 06:00:00,
2013-03-05 01:05:00,23.8,21.6,29.92,WSW,240,6.9,6.9,91,0.00,-SN,,0.00,0.0,WeatherDisplay:10.37,2013-03-05 06:05:00,
2013-03-05 01:10:00,23.8,21.6,29.93,WSW,240,8.1,8.1,91,0.00,-SN,,0.00,0.0,WeatherDisplay:10.37,2013-03-05 06:10:00,
2013-03-05 01:15:00,23.8,21.6,29.93,WSW,252,4.6,4.6,91,0.00,-SN,,0.00,0.0,WeatherDisplay:10.37,2013-03-05 06:15:00,
2013-03-05 01:20:00,23.8,21.6,29.93,West,281,5.8,5.8,91,0.00,-SN,,0.00,0.0,WeatherDisplay:10.37,2013-03-05 06:20:00,
2013-03-05 01:25:00,23.8,21.6,29.93,SW,234,8.1,8.1,91,0.00,-SN,,0.00,0.0,WeatherDisplay:10.37,2013-03-05 06:25:00,
2013-03-05 01:30:00,23.8,21.8,29.93,SW,229,5.8,5.8,92,0.00,-SN,,0.00,0.0,WeatherDisplay:10.37,2013-03-05 06:30:00,
2013-03-05 01:35:00,23.7,21.7,29.94,WSW,238,10.4,10.4,92,0.00,-SN,,0.00,0.0,WeatherDisplay:10.37,2013-03-05 06:35:00,
2013-03-05 01:40:00,23.7,21.7,29.94,WSW,249,6.9,6.9,92,0.00,-SN,,0.00,0.0,WeatherDisplay:10.37,2013-03-05 06:40:00,
2013-03-05 01:45:00,23.7,21.7,29.94,West,263,4.6,4.6,92,0.00,-SN,,0.00,0.0,WeatherDisplay:10.37,2013-03-05 06:45:00,
2013-03-05 01:50:00,23.7,21.7,29.94,WSW,244,7.0,7.0,92,0.00,-SN,,0.00,0.0,WeatherDisplay:10.37,2013-03-05 06:50:00,
2013-03-05 01:55:00,23.8,21.8,29.94,SW,221,6.9,6.9,92,0.00,-SN,,0.00,0.0,WeatherDisplay:10.37,2013-03-05 06:55:00,
2013-03-05 02:00:00,23.7,21.5,29.94,SW,236,6.9,6.9,91,0.00,-SN,,0.00,0.0,WeatherDisplay:10.37,2013-03-05 07:00:00,
2013-03-05 02:05:00,23.7,21.5,29.94,WSW,247,7.0,7.0,91,0.00,-SN,,0.00,0.0,WeatherDisplay:10.37,2013-03-05 07:05:00,
2013-03-05 02:10:00,23.7,21.5,29.94,WSW,249,9.2,9.2,91,0.00,-SN,,0.00,0.0,WeatherDisplay:10.37,2013-03-05 07:10:00,
2013-03-05 02:15:00,23.8,21.6,29.94,SW,223,6.9,6.9,91,0.00,-SN,,0.00,0.0,WeatherDisplay:10.37,2013-03-05 07:15:00,
2013-03-05 02:20:00,23.8,21.6,29.95,SSW,212,10.4,10.4,91,0.00,-SN,,0.00,0.0,WeatherDisplay:10.37,2013-03-05 07:20:00,
2013-03-05 02:25:00,23.8,21.6,29.95,WSW,250,6.9,6.9,91,0.00,-SN,,0.00,0.0,WeatherDisplay:10.37,2013-03-05 07:25:00,
2013-03-05 02:30:00,23.8,21.6,29.95,WSW,248,10.4,10.4,91,0.00,-SN,,0.00,0.0,WeatherDisplay:10.37,2013-03-05 07:30:00,
2013-03-05 02:35:00,23.8,21.6,29.95,West,280,8.1,8.1,91,0.00,-SN,,0.00,0.0,WeatherDisplay:10.37,2013-03-05 07:35:00,
2013-03-05 02:40:00,23.8,21.6,29.95,SW,233,6.0,6.0,91,0.00,-SN,,0.00,0.0,WeatherDisplay:10.37,2013-03-05 07:40:00,
2013-03-05 02:45:00,23.8,21.6,29.95,WSW,245,8.1,8.1,91,0.00,-SN,,0.00,0.0,WeatherDisplay:10.37,2013-03-05 07:45:00,
2013-03-05 02:50:00,23.8,21.6,29.95,WSW,248,8.1,8.1,91,0.00,-SN,,0.00,0.0,WeatherDisplay:10.37,2013-03-05 07:50:00,
2013-03-05 02:55:00,23.8,21.6,29.95,SW,221,10.4,10.4,91,0.00,-SN,,0.00,0.0,WeatherDisplay:10.37,2013-03-05 07:55:00,
2013-03-05 03:00:00,23.8,21.6,29.96,SW,232,9.2,9.2,91,0.00,-SN,,0.00,0.0,WeatherDisplay:10.37,2013-03-05 08:00:00,
2013-03-05 03:05:00,23.8,21.6,29.96,SW,225,4.6,5.3,91,0.00,-SN,,0.00,0.0,WeatherDisplay:10.37,2013-03-05 08:05:00,
2013-03-05 03:10:00,23.8,21.6,29.96,WSW,254,6.0,6.0,91,0.00,-SN,,0.00,0.0,WeatherDisplay:10.37,2013-03-05 08:10:00,
2013-03-05 03:15:00,23.8,21.6,29.96,WSW,240,5.0,5.0,91,0.00,-SN,,0.00,0.0,WeatherDisplay:10.37,2013-03-05 08:15:00,
2013-03-05 03:20:00,23.8,21.3,29.96,West,271,4.6,4.6,90,0.00,-SN,,0.00,0.0,WeatherDisplay:10.37,2013-03-05 08:20:00,
2013-03-05 03:25:00,23.8,21.3,29.97,SW,223,11.5,11.5,90,0.00,-SN,,0.00,0.0,WeatherDisplay:10.37,2013-03-05 08:25:00,
2013-03-05 03:30:00,23.8,21.6,29.97,SSW,200,6.0,6.0,91,0.00,-SN,,0.00,0.0,WeatherDisplay:10.37,2013-03-05 08:30:00,
2013-03-05 03:35:00,23.8,21.6,29.97,SW,233,5.8,5.8,91,0.00,-SN,,0.00,0.0,WeatherDisplay:10.37,2013-03-05 08:35:00,
2013-03-05 03:40:00,23.8,21.3,29.97,WSW,238,6.9,6.9,90,0.00,-SN,,0.00,0.0,WeatherDisplay:10.37,2013-03-05 08:40:00,
2013-03-05 03:45:00,23.8,21.3,29.97,SW,225,5.0,5.0,90,0.00,-SN,,0.00,0.0,WeatherDisplay:10.37,2013-03-05 08:45:00,
2013-03-05 03:50:00,23.8,21.3,29.98,WSW,250,9.2,9.2,90,0.00,-SN,,0.00,0.0,WeatherDisplay:10.37,2013-03-05 08:50:00,
2013-03-05 03:55:00,23.8,21.3,29.98,SW,236,5.0,5.0,90,0.00,-SN,,0.00,0.0,WeatherDisplay:10.37,2013-03-05 08:55:00,
2013-03-05 04:00:00,23.8,21.3,29.98,SW,218,6.9,6.9,90,0.00,-SN,,0.00,0.0,WeatherDisplay:10.37,2013-03-05 09:00:00,
2013-03-05 04:05:00,23.8,21.6,29.99,SW,232,8.0,8.0,91,0.00,-SN,,0.00,0.0,WeatherDisplay:10.37,2013-03-05 09:05:00,
2013-03-05 04:10:00,23.8,21.3,29.99,SW,230,5.0,5.0,90,0.00,-SN,,0.00,0.0,WeatherDisplay:10.37,2013-03-05 09:10:00,
2013-03-05 04:15:00,23.8,21.6,29.99,WSW,239,3.5,3.5,91,0.00,-SN,,0.00,0.0,WeatherDisplay:10.37,2013-03-05 09:15:00,
2013-03-05 04:20:00,23.8,21.6,29.99,SW,223,6.9,6.9,91,0.00,-SN,,0.00,0.0,WeatherDisplay:10.37,2013-03-05 09:20:00,
2013-03-05 04:25:00,23.8,21.6,30.00,WSW,244,6.9,6.9,91,0.00,-SN,,0.00,0.0,WeatherDisplay:10.37,2013-03-05 09:25:00,
2013-03-05 04:30:00,23.7,21.5,30.00,SW,227,5.8,5.8,91,0.00,-SN,,0.00,0.0,WeatherDisplay:10.37,2013-03-05 09:30:00,
2013-03-05 04:35:00,23.7,21.5,30.00,West,267,9.2,9.2,91,0.00,-SN,,0.00,0.0,WeatherDisplay:10.37,2013-03-05 09:35:00,
2013-03-05 04:40:00,23.7,21.5,30.00,SW,224,4.6,4.6,91,0.00,-SN,,0.00,0.0,WeatherDisplay:10.37,2013-03-05 09:40:00,
2013-03-05 04:45:00,23.6,21.4,30.00,WSW,243,3.5,3.5,91,0.00,-SN,,0.00,0.0,WeatherDisplay:10.37,2013-03-05 09:45:00,
2013-03-05 04:50:00,23.6,21.4,30.00,SW,230,6.9,6.9,91,0.00,-SN,,0.00,0.0,WeatherDisplay:10.37,2013-03-05 09:50:00,
2013-03-05 04:55:00,23.5,21.3,30.00,SW,227,5.8,5.8,91,0.00,-SN,,0.00,0.0,WeatherDisplay:10.37,2013-03-05 09:55:00,
2013-03-05 05:00:00,23.5,21.3,30.01,SW,221,4.0,4.0,91,0.00,-SN,,0.00,0.0,WeatherDisplay:10.37,2013-03-05 10:00:00,
2013-03-05 05:05:00,23.5,21.3,30.01,SW,225,5.8,5.8,91,0.00,-SN,,0.00,0.0,WeatherDisplay:10.37,2013-03-05 10:05:00,
2013-03-05 05:10:00,23.5,21.3,30.01,WSW,238,7.0,7.0,91,0.00,-SN,,0.00,0.0,WeatherDisplay:10.37,2013-03-05 10:10:00,
2013-03-05 05:15:00,23.5,21.3,30.01,West,273,4.0,4.0,91,0.00,-SN,,0.00,0.0,WeatherDisplay:10.37,2013-03-05 10:15:00,
2013-03-05 05:20:00,23.4,21.2,30.01,WSW,248,6.9,6.9,91,0.00,-SN,,0.00,0.0,WeatherDisplay:10.37,2013-03-05 10:20:00,
2013-03-05 05:25:00,23.4,21.2,30.02,SW,230,6.9,6.9,91,0.00,-SN,,0.00,0.0,WeatherDisplay:10.37,2013-03-05 10:25:00,
2013-03-05 05:30:00,23.4,21.2,30.02,WSW,242,5.8,5.8,91,0.01,-SN,,0.01,0.0,WeatherDisplay:10.37,2013-03-05 10:30:00,
2013-03-05 05:35:00,23.4,21.2,30.02,WSW,248,4.6,4.6,91,0.01,-SN,,0.01,0.0,WeatherDisplay:10.37,2013-03-05 10:35:00,
2013-03-05 05:40:00,23.4,21.4,30.02,SW,232,5.8,5.8,92,0.01,-SN,,0.01,0.0,WeatherDisplay:10.37,2013-03-05 10:40:00,
2013-03-05 05:45:00,23.3,21.1,30.02,West,274,5.8,5.8,91,0.01,-SN,,0.01,0.0,WeatherDisplay:10.37,2013-03-05 10:45:00,
2013-03-05 05:50:00,23.3,21.3,30.03,SW,223,4.6,4.6,92,0.01,-SN,,0.01,0.0,WeatherDisplay:10.37,2013-03-05 10:50:00,
2013-03-05 05:55:00,23.2,21.0,30.03,SW,236,3.5,3.5,91,0.01,-SN,,0.01,0.0,WeatherDisplay:10.37,2013-03-05 10:55:00,
2013-03-05 06:00:00,23.2,21.0,30.03,WSW,243,7.0,7.0,91,0.01,-SN,,0.01,0.0,WeatherDisplay:10.37,2013-03-05 11:00:00,
2013-03-05 06:05:00,23.2,21.0,30.04,South,189,3.5,3.5,91,0.01,-SN,,0.01,0.0,WeatherDisplay:10.37,2013-03-05 11:05:00,
2013-03-05 06:10:00,23.1,20.9,30.04,SW,225,3.5,3.5,91,0.01,-SN,,0.01,0.0,WeatherDisplay:10.37,2013-03-05 11:10:00,
2013-03-05 06:15:00,23.1,20.9,30.04,WSW,250,8.1,8.1,91,0.01,-SN,,0.01,0.0,WeatherDisplay:10.37,2013-03-05 11:15:00,
2013-03-05 06:20:00,23.1,20.9,30.04,SSW,211,6.9,6.9,91,0.01,-SN,,0.01,0.0,WeatherDisplay:10.37,2013-03-05 11:20:00,
2013-03-05 06:25:00,23.1,20.9,30.05,SW,223,5.8,5.8,91,0.01,-SN,,0.01,0.0,WeatherDisplay:10.37,2013-03-05 11:25:00,
2013-03-05 06:30:00,23.1,20.9,30.05,WSW,238,4.6,4.6,91,0.00,-SN,,0.01,0.0,WeatherDisplay:10.37,2013-03-05 11:30:00,
2013-03-05 06:35:00,23.1,20.9,30.05,SW,224,5.8,5.8,91,0.00,-SN,,0.01,0.0,WeatherDisplay:10.37,2013-03-05 11:35:00,
2013-03-05 06:40:00,23.1,20.9,30.05,WNW,285,3.5,3.5,91,0.00,-SN,,0.01,5.0,WeatherDisplay:10.37,2013-03-05 11:40:00,
2013-03-05 06:45:00,23.2,21.0,30.05,SW,231,5.0,5.0,91,0.00,-SN,,0.01,9.0,WeatherDisplay:10.37,2013-03-05 11:45:00,
2013-03-05 06:50:00,23.1,20.9,30.05,SW,215,8.1,8.1,91,0.00,-SN,,0.01,11.0,WeatherDisplay:10.37,2013-03-05 11:50:00,
2013-03-05 06:55:00,23.2,21.0,30.06,WSW,240,10.4,10.4,91,0.00,-SN,,0.01,14.0,WeatherDisplay:10.37,2013-03-05 11:55:00,
2013-03-05 07:00:00,23.2,21.0,30.06,WSW,245,6.9,6.9,91,0.00,-SN,,0.01,16.0,WeatherDisplay:10.37,2013-03-05 12:00:00,
2013-03-05 07:05:00,23.2,20.7,30.06,WSW,248,5.8,5.8,90,0.00,-SN,,0.01,19.0,WeatherDisplay:10.37,2013-03-05 12:05:00,
2013-03-05 07:10:00,23.3,20.8,30.06,WSW,238,8.0,8.0,90,0.00,-SN,,0.01,23.0,WeatherDisplay:10.37,2013-03-05 12:10:00,
2013-03-05 07:15:00,23.3,20.8,30.06,SW,225,5.0,5.0,90,0.00,-SN,,0.01,33.0,WeatherDisplay:10.37,2013-03-05 12:15:00,
2013-03-05 07:20:00,23.4,20.9,30.06,WSW,240,5.0,5.0,90,0.00,-SN,,0.01,42.0,WeatherDisplay:10.37,2013-03-05 12:20:00,
2013-03-05 07:25:00,23.5,21.0,30.06,SW,218,5.8,5.8,90,0.00,-SN,,0.01,49.0,WeatherDisplay:10.37,2013-03-05 12:25:00,
2013-03-05 07:30:00,23.5,21.0,30.07,WSW,257,3.5,3.5,90,0.00,-SN,,0.01,53.0,WeatherDisplay:10.37,2013-03-05 12:30:00,
2013-03-05 07:35:00,23.6,21.1,30.07,West,273,8.1,8.1,90,0.00,-SN,,0.01,56.0,WeatherDisplay:10.37,2013-03-05 12:35:00,
2013-03-05 07:40:00,23.7,21.2,30.07,West,262,5.8,5.8,90,0.00,-SN,,0.01,56.0,WeatherDisplay:10.37,2013-03-05 12:40:00,
2013-03-05 07:45:00,23.8,21.3,30.08,WSW,242,5.8,5.8,90,0.00,-SN,,0.01,62.0,WeatherDisplay:10.37,2013-03-05 12:45:00,
2013-03-05 07:50:00,23.9,21.4,30.08,SW,218,5.8,5.8,90,0.00,-SN,,0.01,69.0,WeatherDisplay:10.37,2013-03-05 12:50:00,
2013-03-05 07:55:00,24.0,21.5,30.08,WSW,258,4.6,4.6,90,0.00,-SN,,0.01,74.0,WeatherDisplay:10.37,2013-03-05 12:55:00,
2013-03-05 08:00:00,24.1,21.3,30.08,West,275,3.5,3.5,89,0.00,-SN,,0.01,88.0,WeatherDisplay:10.37,2013-03-05 13:00:00,
2013-03-05 08:05:00,24.2,21.4,30.08,West,263,4.6,4.6,89,0.00,-SN,,0.01,118.0,WeatherDisplay:10.37,2013-03-05 13:05:00,
2013-03-05 08:10:00,24.3,21.5,30.08,West,267,5.8,5.8,89,0.00,-SN,,0.01,121.0,WeatherDisplay:10.37,2013-03-05 13:10:00,
2013-03-05 08:15:00,24.4,21.4,30.08,WSW,250,5.8,5.8,88,0.00,-SN,,0.01,127.0,WeatherDisplay:10.37,2013-03-05 13:15:00,
2013-03-05 08:20:00,24.4,21.4,30.08,WSW,247,9.2,9.2,88,0.00,-SN,,0.01,120.0,WeatherDisplay:10.37,2013-03-05 13:20:00,
2013-03-05 08:25:00,24.4,21.4,30.08,West,269,5.8,5.8,88,0.00,-SN,,0.01,123.0,WeatherDisplay:10.37,2013-03-05 13:25:00,
2013-03-05 08:30:00,24.4,21.4,30.08,SSW,213,6.9,6.9,88,0.00,-SN,,0.01,120.0,WeatherDisplay:10.37,2013-03-05 13:30:00,
2013-03-05 08:35:00,24.3,21.3,30.08,SW,233,2.3,2.3,88,0.00,-SN,,0.01,135.0,WeatherDisplay:10.37,2013-03-05 13:35:00,
2013-03-05 08:40:00,24.4,21.4,30.09,WSW,237,8.1,8.1,88,0.00,-SN,,0.01,172.0,WeatherDisplay:10.37,2013-03-05 13:40:00,
2013-03-05 08:45:00,24.5,21.5,30.08,SW,234,6.9,6.9,88,0.00,-SN,,0.01,197.0,WeatherDisplay:10.37,2013-03-05 13:45:00,
2013-03-05 08:50:00,24.7,21.7,30.09,WNW,283,7.0,7.0,88,0.00,-SN,,0.01,206.0,WeatherDisplay:10.37,2013-03-05 13:50:00,
2013-03-05 08:55:00,24.9,21.8,30.09,West,273,9.2,9.2,88,0.00,-SN,,0.01,225.0,WeatherDisplay:10.37,2013-03-05 13:55:00,
2013-03-05 09:00:00,25.1,21.8,30.09,SW,234,4.6,4.6,87,0.00,-SN,,0.01,223.0,WeatherDisplay:10.37,2013-03-05 14:00:00,
2013-03-05 09:05:00,25.2,21.9,30.09,West,269,4.6,4.6,87,0.00,-SN,,0.01,211.0,WeatherDisplay:10.37,2013-03-05 14:05:00,
2013-03-05 09:10:00,25.5,22.2,30.09,SW,236,5.8,5.8,87,0.00,-SN,,0.01,229.0,WeatherDisplay:10.37,2013-03-05 14:10:00,
2013-03-05 09:15:00,25.8,22.5,30.09,WNW,286,4.0,4.0,87,0.00,-SN,,0.01,207.0,WeatherDisplay:10.37,2013-03-05 14:15:00,
2013-03-05 09:20:00,26.0,22.4,30.09,West,269,7.0,7.0,86,0.00,-SN,,0.01,204.0,WeatherDisplay:10.37,2013-03-05 14:20:00,
2013-03-05 09:25:00,26.1,22.5,30.09,SW,234,5.8,5.8,86,0.00,-SN,,0.01,213.0,WeatherDisplay:10.37,2013-03-05 14:25:00,
2013-03-05 09:30:00,26.1,22.2,30.09,WSW,243,8.1,8.1,85,0.00,-SN,,0.01,227.0,WeatherDisplay:10.37,2013-03-05 14:30:00,
2013-03-05 09:35:00,26.2,22.6,30.09,WNW,287,6.9,6.9,86,0.00,-SN,,0.01,248.0,WeatherDisplay:10.37,2013-03-05 14:35:00,
2013-03-05 09:40:00,26.4,22.8,30.09,West,277,3.5,3.5,86,0.00,-SN,,0.01,255.0,WeatherDisplay:10.37,2013-03-05 14:40:00,
2013-03-05 09:45:00,26.6,22.7,30.10,West,275,6.0,6.0,85,0.00,-SN,,0.01,248.0,WeatherDisplay:10.37,2013-03-05 14:45:00,
2013-03-05 09:50:00,26.7,22.8,30.10,WSW,250,5.8,5.8,85,0.00,-SN,,0.01,258.0,WeatherDisplay:10.37,2013-03-05 14:50:00,
2013-03-05 09:55:00,26.7,22.8,30.10,SW,234,5.0,5.0,85,0.00,-SN,,0.01,258.0,WeatherDisplay:10.37,2013-03-05 14:55:00,
2013-03-05 10:00:00,26.7,22.5,30.10,SW,229,5.8,5.8,84,0.00,-SN,,0.01,269.0,WeatherDisplay:10.37,2013-03-05 15:00:00,
2013-03-05 10:05:00,26.9,23.0,30.10,West,273,3.5,3.5,85,0.00,-SN,,0.01,269.0,WeatherDisplay:10.37,2013-03-05 15:05:00,
2013-03-05 10:10:00,26.8,22.3,30.10,SW,219,5.8,5.8,83,0.00,-SN,,0.01,272.0,WeatherDisplay:10.37,2013-03-05 15:10:00,
2013-03-05 10:15:00,26.8,22.6,30.10,WSW,257,8.1,8.1,84,0.00,-SN,,0.01,267.0,WeatherDisplay:10.37,2013-03-05 15:15:00,
2013-03-05 10:20:00,27.0,22.8,30.10,West,266,4.0,4.0,84,0.00,-SN,,0.01,265.0,WeatherDisplay:10.37,2013-03-05 15:20:00,
2013-03-05 10:25:00,27.2,23.0,30.10,West,275,4.6,4.6,84,0.00,-SN,,0.01,295.0,WeatherDisplay:10.37,2013-03-05 15:25:00,
2013-03-05 10:30:00,27.6,23.4,30.10,WNW,288,6.0,6.0,84,0.00,-SN,,0.01,306.0,WeatherDisplay:10.37,2013-03-05 15:30:00,
2013-03-05 10:35:00,27.8,23.6,30.10,West,275,8.1,8.1,84,0.00,-SN,,0.01,325.0,WeatherDisplay:10.37,2013-03-05 15:35:00,
2013-03-05 10:40:00,28.1,23.6,30.10,West,281,5.8,5.8,83,0.00,-SN,,0.01,330.0,WeatherDisplay:10.37,2013-03-05 15:40:00,
2013-03-05 10:45:00,28.4,23.9,30.10,SW,221,3.5,3.5,83,0.00,-SN,,0.01,366.0,WeatherDisplay:10.37,2013-03-05 15:45:00,
2013-03-05 10:50:00,28.4,23.3,30.10,SW,218,4.0,4.0,81,0.00,-SN,,0.01,362.0,WeatherDisplay:10.37,2013-03-05 15:50:00,
2013-03-05 10:55:00,28.2,23.7,30.10,SW,229,3.5,3.5,83,0.00,-SN,,0.01,339.0,WeatherDisplay:10.37,2013-03-05 15:55:00,
2013-03-05 11:00:00,28.2,23.4,30.10,WSW,245,5.8,5.8,82,0.00,-SN,,0.01,316.0,WeatherDisplay:10.37,2013-03-05 16:00:00,
2013-03-05 11:05:00,28.3,23.5,30.10,WSW,239,3.5,3.5,82,0.00,-SN,,0.01,339.0,WeatherDisplay:10.37,2013-03-05 16:05:00,
2013-03-05 11:10:00,28.5,23.7,30.10,SW,235,3.5,3.5,82,0.00,-SN,,0.01,364.0,WeatherDisplay:10.37,2013-03-05 16:10:00,
2013-03-05 11:15:00,28.8,24.0,30.10,WSW,245,3.5,3.5,82,0.00,-SN,,0.01,373.0,WeatherDisplay:10.37,2013-03-05 16:15:00,
2013-03-05 11:20:00,29.0,24.2,30.10,West,273,4.6,4.6,82,0.00,-SN,,0.01,385.0,WeatherDisplay:10.37,2013-03-05 16:20:00,
2013-03-05 11:25:00,29.0,23.9,30.10,West,280,5.8,5.8,81,0.00,-SN,,0.01,417.0,WeatherDisplay:10.37,2013-03-05 16:25:00,
2013-03-05 11:30:00,29.2,24.4,30.10,WSW,255,3.5,3.5,82,0.00,-SN,,0.01,431.0,WeatherDisplay:10.37,2013-03-05 16:30:00,
2013-03-05 11:35:00,29.8,24.7,30.10,WSW,257,4.6,4.6,81,0.00,-SN,,0.01,446.0,WeatherDisplay:10.37,2013-03-05 16:35:00,
2013-03-05 11:40:00,30.3,24.9,30.10,WSW,258,3.5,3.5,80,0.00,-SN,,0.01,459.0,WeatherDisplay:10.37,2013-03-05 16:40:00,
2013-03-05 11:45:00,30.5,24.5,30.10,WSW,249,3.5,3.5,78,0.00,-SN,,0.01,471.0,WeatherDisplay:10.37,2013-03-05 16:45:00,
2013-03-05 11:50:00,30.6,24.9,30.10,SW,232,2.3,2.3,79,0.00,OVC,,0.01,454.0,WeatherDisplay:10.37,2013-03-05 16:50:00,
2013-03-05 11:55:00,31.0,25.2,30.10,West,281,4.6,4.6,79,0.00,OVC,,0.01,441.0,WeatherDisplay:10.37,2013-03-05 16:55:00,
2013-03-05 12:00:00,30.8,24.7,30.10,West,279,4.0,4.0,78,0.00,OVC,,0.01,478.0,WeatherDisplay:10.37,2013-03-05 17:00:00,
2013-03-05 12:05:00,31.1,25.3,30.10,West,275,4.6,4.6,79,0.00,OVC,,0.01,452.0,WeatherDisplay:10.37,2013-03-05 17:05:00,
2013-03-05 12:10:00,31.7,26.2,30.10,NW,311,3.5,3.5,80,0.00,OVC,,0.01,381.0,WeatherDisplay:10.37,2013-03-05 17:10:00,
2013-03-05 12:15:00,32.1,26.0,30.10,NW,309,2.3,2.3,78,0.00,OVC,,0.01,371.0,WeatherDisplay:10.37,2013-03-05 17:15:00,
2013-03-05 12:20:00,32.2,25.8,30.10,NW,309,2.3,2.3,77,0.00,OVC,,0.01,385.0,WeatherDisplay:10.37,2013-03-05 17:20:00,
2013-03-05 12:25:00,32.1,25.7,30.10,NW,308,3.5,3.5,77,0.00,OVC,,0.01,388.0,WeatherDisplay:10.37,2013-03-05 17:25:00,
2013-03-05 12:30:00,32.1,26.0,30.10,NW,308,3.5,3.5,78,0.00,OVC,,0.01,403.0,WeatherDisplay:10.37,2013-03-05 17:30:00,
2013-03-05 12:35:00,32.3,25.9,30.10,NW,308,3.5,3.5,77,0.00,-SN,,0.01,374.0,WeatherDisplay:10.37,2013-03-05 17:35:00,
2013-03-05 12:40:00,32.6,26.2,30.10,NW,309,2.3,2.3,77,0.00,-SN,,0.01,369.0,WeatherDisplay:10.37,2013-03-05 17:40:00,
2013-03-05 12:45:00,33.1,26.7,30.10,WNW,302,1.2,0.0,77,0.00,-SN,,0.01,387.0,WeatherDisplay:10.37,2013-03-05 17:45:00,
2013-03-05 12:50:00,33.4,26.6,30.10,NW,310,3.0,3.0,76,0.00,-SN,,0.01,466.0,WeatherDisplay:10.37,2013-03-05 17:50:00,
2013-03-05 12:55:00,33.7,26.9,30.10,NNW,329,1.2,1.2,76,0.00,-SN,,0.01,457.0,WeatherDisplay:10.37,2013-03-05 17:55:00,
2013-03-05 13:00:00,34.0,26.9,30.10,NNW,331,0.0,0.0,75,0.00,-SN,,0.01,403.0,WeatherDisplay:10.37,2013-03-05 18:00:00,
2013-03-05 13:05:00,34.2,27.1,30.10,NNW,331,3.5,3.5,75,0.00,-SN,,0.01,392.0,WeatherDisplay:10.37,2013-03-05 18:05:00,
2013-03-05 13:10:00,34.4,27.3,30.10,NNW,330,3.5,3.5,75,0.00,-SN,,0.01,418.0,WeatherDisplay:10.37,2013-03-05 18:10:00,
2013-03-05 13:15:00,34.5,27.1,30.10,NNW,329,2.3,2.3,74,0.00,-SN,,0.01,383.0,WeatherDisplay:10.37,2013-03-05 18:15:00,
2013-03-05 13:20:00,34.7,27.9,30.11,NNW,331,2.3,0.0,76,0.00,-SN,,0.01,369.0,WeatherDisplay:10.37,2013-03-05 18:20:00,
2013-03-05 13:25:00,35.0,27.5,30.11,NNW,331,0.0,0.0,74,0.00,-SN,,0.01,345.0,WeatherDisplay:10.37,2013-03-05 18:25:00,
2013-03-05 13:30:00,34.9,27.5,30.11,NNW,331,2.3,2.3,74,0.00,-SN,,0.01,369.0,WeatherDisplay:10.37,2013-03-05 18:30:00,
2013-03-05 13:35:00,34.8,27.4,30.11,NNW,332,2.3,2.3,74,0.00,-SN,,0.01,369.0,WeatherDisplay:10.37,2013-03-05 18:35:00,
2013-03-05 13:40:00,34.8,27.0,30.11,NNW,331,3.5,3.5,73,0.00,-SN,,0.01,352.0,WeatherDisplay:10.37,2013-03-05 18:40:00,
2013-03-05 13:45:00,34.7,26.9,30.11,NNW,331,0.0,0.0,73,0.00,-SN,,0.01,338.0,WeatherDisplay:10.37,2013-03-05 18:45:00,
2013-03-05 13:50:00,34.8,27.4,30.11,North,355,2.3,2.3,74,0.00,-SN,,0.01,343.0,WeatherDisplay:10.37,2013-03-05 18:50:00,
2013-03-05 13:55:00,34.4,27.0,30.11,SSE,155,5.8,5.8,74,0.00,-SN,,0.01,338.0,WeatherDisplay:10.37,2013-03-05 18:55:00,
2013-03-05 14:00:00,33.6,26.2,30.11,SSE,166,6.9,6.9,74,0.00,-SN,,0.01,322.0,WeatherDisplay:10.37,2013-03-05 19:00:00,
2013-03-05 14:05:00,33.0,26.3,30.11,SSE,161,5.0,5.0,76,0.00,BKN,,0.01,345.0,WeatherDisplay:10.37,2013-03-05 19:05:00,
2013-03-05 14:10:00,32.7,26.0,30.11,SSE,157,5.0,5.0,76,0.00,BKN,,0.01,265.0,WeatherDisplay:10.37,2013-03-05 19:10:00,
2013-03-05 14:15:00,32.4,26.3,30.12,SE,143,3.5,3.5,78,0.00,BKN,,0.01,693.0,WeatherDisplay:10.37,2013-03-05 19:15:00,
2013-03-05 14:20:00,33.5,27.1,30.12,SSE,153,4.6,4.6,77,0.00,BKN,,0.01,684.0,WeatherDisplay:10.37,2013-03-05 19:20:00,
2013-03-05 14:25:00,33.2,26.5,30.12,SSE,155,6.9,6.9,76,0.00,BKN,,0.01,684.0,WeatherDisplay:10.37,2013-03-05 19:25:00,
2013-03-05 14:30:00,33.8,26.7,30.12,SSE,165,6.9,6.9,75,0.00,BKN,,0.01,454.0,WeatherDisplay:10.37,2013-03-05 19:30:00,
2013-03-05 14:35:00,33.6,26.5,30.12,SSE,159,4.6,4.6,75,0.00,BKN,,0.01,471.0,WeatherDisplay:10.37,2013-03-05 19:35:00,
2013-03-05 14:40:00,33.5,26.4,30.12,SSE,159,5.8,5.8,75,0.00,BKN,,0.01,418.0,WeatherDisplay:10.37,2013-03-05 19:40:00,
2013-03-05 14:45:00,33.2,26.8,30.12,SSE,149,4.6,4.6,77,0.00,BKN,,0.01,323.0,WeatherDisplay:10.37,2013-03-05 19:45:00,
2013-03-05 14:50:00,32.8,26.7,30.12,SE,134,4.6,4.6,78,0.00,BKN,,0.01,322.0,WeatherDisplay:10.37,2013-03-05 19:50:00,
2013-03-05 14:55:00,32.4,26.3,30.13,SE,144,5.0,5.0,78,0.00,BKN,,0.01,285.0,WeatherDisplay:10.37,2013-03-05 19:55:00,
2013-03-05 15:00:00,32.3,26.5,30.13,SE,146,3.5,3.5,79,0.00,BKN,,0.01,302.0,WeatherDisplay:10.37,2013-03-05 20:00:00,
2013-03-05 15:05:00,32.3,26.2,30.13,SSE,148,3.5,3.5,78,0.00,BKN,,0.01,227.0,WeatherDisplay:10.37,2013-03-05 20:05:00,
2013-03-05 15:10:00,32.4,26.6,30.13,SSE,147,5.8,5.8,79,0.00,BKN,,0.01,292.0,WeatherDisplay:10.37,2013-03-05 20:10:00,
2013-03-05 15:15:00,32.8,26.7,30.13,SE,138,3.5,3.5,78,0.00,BKN,,0.01,408.0,WeatherDisplay:10.37,2013-03-05 20:15:00,
2013-03-05 15:20:00,33.4,26.6,30.13,SE,138,3.5,3.5,76,0.00,BKN,,0.01,401.0,WeatherDisplay:10.37,2013-03-05 20:20:00,
2013-03-05 15:25:00,33.9,26.8,30.13,SE,138,4.0,4.0,75,0.00,BKN,,0.01,499.0,WeatherDisplay:10.37,2013-03-05 20:25:00,
2013-03-05 15:30:00,33.8,26.7,30.13,SE,140,2.3,2.3,75,0.00,BKN,,0.01,413.0,WeatherDisplay:10.37,2013-03-05 20:30:00,
2013-03-05 15:35:00,34.3,27.2,30.13,SE,140,2.3,2.3,75,0.00,BKN,,0.01,345.0,WeatherDisplay:10.37,2013-03-05 20:35:00,
2013-03-05 15:40:00,33.7,26.6,30.13,SE,140,3.5,3.5,75,0.00,BKN,,0.01,209.0,WeatherDisplay:10.37,2013-03-05 20:40:00,
2013-03-05 15:45:00,33.8,27.0,30.13,SE,140,4.0,4.0,76,0.00,BKN,,0.01,227.0,WeatherDisplay:10.37,2013-03-05 20:45:00,
2013-03-05 15:50:00,34.0,27.2,30.13,SE,144,4.6,4.6,76,0.00,BKN,,0.01,178.0,WeatherDisplay:10.37,2013-03-05 20:50:00,
2013-03-05 15:55:00,34.1,27.3,30.13,SE,144,4.0,4.0,76,0.00,BKN,,0.01,230.0,WeatherDisplay:10.37,2013-03-05 20:55:00,
2013-03-05 16:00:00,34.1,27.0,30.13,SE,144,4.0,4.0,75,0.00,BKN,,0.01,255.0,WeatherDisplay:10.37,2013-03-05 21:00:00,
2013-03-05 16:05:00,33.9,26.5,30.13,SE,144,2.3,2.3,74,0.00,BKN,,0.01,197.0,WeatherDisplay:10.37,2013-03-05 21:05:00,
2013-03-05 16:10:00,33.7,26.6,30.13,SE,144,0.0,0.0,75,0.00,BKN,,0.01,98.0,WeatherDisplay:10.37,2013-03-05 21:10:00,
2013-03-05 16:15:00,33.7,26.6,30.13,SE,144,3.5,3.5,75,0.00,BKN,,0.01,192.0,WeatherDisplay:10.37,2013-03-05 21:15:00,
2013-03-05 16:20:00,33.7,26.6,30.14,SE,144,2.3,2.3,75,0.00,FEW,,0.01,105.0,WeatherDisplay:10.37,2013-03-05 21:20:00,
2013-03-05 16:25:00,33.4,26.3,30.13,SE,144,0.0,0.0,75,0.00,FEW,,0.01,123.0,WeatherDisplay:10.37,2013-03-05 21:25:00,
2013-03-05 16:30:00,33.2,26.5,30.13,SE,144,0.0,0.0,76,0.00,FEW,,0.01,97.0,WeatherDisplay:10.37,2013-03-05 21:30:00,
2013-03-05 16:35:00,32.9,26.5,30.14,SE,144,2.3,2.3,77,0.00,FEW,,0.01,128.0,WeatherDisplay:10.37,2013-03-05 21:35:00,
2013-03-05 16:40:00,32.8,26.4,30.14,SE,144,0.0,0.0,77,0.00,FEW,,0.01,91.0,WeatherDisplay:10.37,2013-03-05 21:40:00,
2013-03-05 16:45:00,32.7,26.3,30.14,SE,144,2.3,2.3,77,0.00,FEW,,0.01,146.0,WeatherDisplay:10.37,2013-03-05 21:45:00,
2013-03-05 16:50:00,32.5,26.4,30.14,SE,144,2.3,2.3,78,0.00,FEW,,0.01,77.0,WeatherDisplay:10.37,2013-03-05 21:50:00,
2013-03-05 16:55:00,32.3,26.2,30.15,SE,144,2.3,2.3,78,0.00,FEW,,0.01,111.0,WeatherDisplay:10.37,2013-03-05 21:55:00,
2013-03-05 17:00:00,32.1,26.0,30.14,SE,144,0.0,0.6,78,0.00,FEW,,0.01,46.0,WeatherDisplay:10.37,2013-03-05 22:00:00,
2013-03-05 17:05:00,31.9,26.1,30.14,SE,144,0.0,2.0,79,0.00,FEW,,0.01,60.0,WeatherDisplay:10.37,2013-03-05 22:05:00,
2013-03-05 17:10:00,31.6,25.8,30.15,SE,144,0.0,0.0,79,0.00,FEW,,0.01,54.0,WeatherDisplay:10.37,2013-03-05 22:10:00,
2013-03-05 17:15:00,31.3,25.6,30.15,SE,144,0.0,2.0,79,0.00,FEW,,0.01,42.0,WeatherDisplay:10.37,2013-03-05 22:15:00,
2013-03-05 17:20:00,30.9,25.5,30.15,SSE,147,5.0,5.0,80,0.00,SCT,,0.01,39.0,WeatherDisplay:10.37,2013-03-05 22:20:00,
2013-03-05 17:25:00,30.5,25.1,30.15,SSE,147,2.3,2.3,80,0.00,SCT,,0.01,23.0,WeatherDisplay:10.37,2013-03-05 22:25:00,
2013-03-05 17:30:00,30.2,25.1,30.15,SSE,147,2.3,2.3,81,0.00,SCT,,0.01,19.0,WeatherDisplay:10.37,2013-03-05 22:30:00,
2013-03-05 17:35:00,29.9,24.8,30.15,SSE,147,0.0,0.0,81,0.00,SCT,,0.01,18.0,WeatherDisplay:10.37,2013-03-05 22:35:00,
2013-03-05 17:40:00,29.8,25.0,30.15,SSE,147,0.0,0.0,82,0.00,SCT,,0.01,12.0,WeatherDisplay:10.37,2013-03-05 22:40:00,
2013-03-05 17:45:00,29.7,24.9,30.15,SSE,147,0.0,2.0,82,0.00,SCT,,0.01,7.0,WeatherDisplay:10.37,2013-03-05 22:45:00,
2013-03-05 17:50:00,29.7,25.2,30.15,SSE,147,1.2,1.2,83,0.00,SCT,,0.01,0.0,WeatherDisplay:10.37,2013-03-05 22:50:00,
2013-03-05 17:55:00,29.9,25.4,30.15,SSE,147,2.0,4.0,83,0.00,SCT,,0.01,0.0,WeatherDisplay:10.37,2013-03-05 22:55:00,
2013-03-05 18:00:00,30.0,25.5,30.15,SSE,147,2.3,2.3,83,0.00,SCT,,0.01,0.0,WeatherDisplay:10.37,2013-03-05 23:00:00,
2013-03-05 18:05:00,29.9,25.4,30.15,SSE,147,2.3,2.3,83,0.00,SCT,,0.01,0.0,WeatherDisplay:10.37,2013-03-05 23:05:00,
2013-03-05 18:10:00,29.9,25.4,30.15,SSE,147,1.2,1.2,83,0.00,SCT,,0.01,0.0,WeatherDisplay:10.37,2013-03-05 23:10:00,
2013-03-05 18:15:00,29.8,25.3,30.15,SSE,147,1.0,1.0,83,0.00,SCT,,0.01,0.0,WeatherDisplay:10.37,2013-03-05 23:15:00,
2013-03-05 18:20:00,29.7,25.2,30.15,SSE,147,0.0,0.0,83,0.00,SCT,,0.01,0.0,WeatherDisplay:10.37,2013-03-05 23:20:00,
2013-03-05 18:25:00,29.6,25.1,30.15,SSE,147,0.0,0.0,83,0.00,SCT,,0.01,0.0,WeatherDisplay:10.37,2013-03-05 23:25:00,
2013-03-05 18:30:00,29.5,25.0,30.15,SSE,147,0.0,0.0,83,0.00,SCT,,0.01,0.0,WeatherDisplay:10.37,2013-03-05 23:30:00,
2013-03-05 18:35:00,29.4,24.9,30.15,SSE,147,0.0,0.0,83,0.00,SCT,,0.01,0.0,WeatherDisplay:10.37,2013-03-05 23:35:00,
2013-03-05 18:40:00,29.2,25.0,30.15,SSE,147,0.0,0.0,84,0.00,SCT,,0.01,0.0,WeatherDisplay:10.37,2013-03-05 23:40:00,
2013-03-05 18:45:00,29.1,24.9,30.15,SSE,147,0.0,0.0,84,0.00,SCT,,0.01,0.0,WeatherDisplay:10.37,2013-03-05 23:45:00,
2013-03-05 18:50:00,28.9,24.7,30.15,SSE,147,0.0,0.0,84,0.00,SCT,,0.01,0.0,WeatherDisplay:10.37,2013-03-05 23:50:00,
2013-03-05 18:55:00,28.8,24.6,30.16,SSE,147,0.0,0.0,84,0.00,SCT,,0.01,0.0,WeatherDisplay:10.37,2013-03-05 23:55:00,
2013-03-05 19:00:00,28.6,24.7,30.15,SSE,147,0.0,0.0,85,0.00,SCT,,0.01,0.0,WeatherDisplay:10.37,2013-03-06 00:00:00,
2013-03-05 19:05:00,28.5,24.8,30.15,SSE,147,0.0,0.0,86,0.00,SCT,,0.01,0.0,WeatherDisplay:10.37,2013-03-06 00:05:00,
2013-03-05 19:10:00,28.4,24.7,30.15,SSE,147,0.0,0.0,86,0.00,SCT,,0.01,0.0,WeatherDisplay:10.37,2013-03-06 00:10:00,
2013-03-05 19:15:00,28.3,24.6,30.15,SSE,147,0.0,0.0,86,0.00,SCT,,0.01,0.0,WeatherDisplay:10.37,2013-03-06 00:15:00,
2013-03-05 19:20:00,28.2,24.6,30.15,SSE,147,0.0,0.0,86,0.00,SCT,,0.01,0.0,WeatherDisplay:10.37,2013-03-06 00:20:00,
2013-03-05 19:25:00,28.1,24.5,30.16,SSE,147,0.0,0.0,86,0.00,SCT,,0.01,0.0,WeatherDisplay:10.37,2013-03-06 00:25:00,
2013-03-05 19:30:00,28.0,24.4,30.16,SSE,147,0.0,0.0,86,0.00,SCT,,0.01,0.0,WeatherDisplay:10.37,2013-03-06 00:30:00,
2013-03-05 19:35:00,27.9,24.5,30.16,SSE,147,0.0,0.0,87,0.00,SCT,,0.01,0.0,WeatherDisplay:10.37,2013-03-06 00:35:00,
2013-03-05 19:40:00,27.9,24.5,30.16,SSE,147,0.0,0.0,87,0.00,SCT,,0.01,0.0,WeatherDisplay:10.37,2013-03-06 00:40:00,
2013-03-05 19:45:00,27.9,24.5,30.15,SSE,147,0.0,0.0,87,0.00,SCT,,0.01,0.0,WeatherDisplay:10.37,2013-03-06 00:45:00,
2013-03-05 19:50:00,28.0,24.9,30.15,SSE,147,0.0,0.0,88,0.00,SCT,,0.01,0.0,WeatherDisplay:10.37,2013-03-06 00:50:00,
2013-03-05 19:55:00,28.0,24.9,30.15,SSE,147,0.0,0.0,88,0.00,SCT,,0.01,0.0,WeatherDisplay:10.37,2013-03-06 00:55:00,
2013-03-05 20:00:00,28.0,24.9,30.15,SE,146,0.0,0.0,88,0.00,SCT,,0.01,0.0,WeatherDisplay:10.37,2013-03-06 01:00:00,
2013-03-05 20:05:00,28.0,24.9,30.15,SSE,147,0.0,0.0,88,0.00,SCT,,0.01,0.0,WeatherDisplay:10.37,2013-03-06 01:05:00,
2013-03-05 20:10:00,27.9,24.5,30.15,SSE,147,0.0,0.0,87,0.00,SCT,,0.01,0.0,WeatherDisplay:10.37,2013-03-06 01:10:00,
2013-03-05 20:15:00,27.8,24.7,30.15,SSE,147,1.0,1.0,88,0.00,SCT,,0.01,0.0,WeatherDisplay:10.37,2013-03-06 01:15:00,
2013-03-05 20:20:00,27.7,24.6,30.15,SSE,147,0.0,1.0,88,0.00,SCT,,0.01,0.0,WeatherDisplay:10.37,2013-03-06 01:20:00,
2013-03-05 20:25:00,27.6,24.5,30.15,SE,146,0.0,0.0,88,0.00,SCT,,0.01,0.0,WeatherDisplay:10.37,2013-03-06 01:25:00,
2013-03-05 20:30:00,27.6,24.5,30.15,SE,146,0.0,0.0,88,0.00,SCT,,0.01,0.0,WeatherDisplay:10.37,2013-03-06 01:30:00,
2013-03-05 20:35:00,27.7,24.6,30.15,SE,146,0.0,0.0,88,0.00,SCT,,0.01,0.0,WeatherDisplay:10.37,2013-03-06 01:35:00,
2013-03-05 20:40:00,27.8,25.0,30.14,SE,146,0.0,0.0,89,0.00,SCT,,0.01,0.0,WeatherDisplay:10.37,2013-03-06 01:40:00,
2013-03-05 20:45:00,28.0,25.2,30.14,SE,146,0.0,0.0,89,0.00,SCT,,0.01,0.0,WeatherDisplay:10.37,2013-03-06 01:45:00,
2013-03-05 20:50:00,28.1,25.3,30.14,SE,146,0.0,0.0,89,0.00,SCT,,0.01,0.0,WeatherDisplay:10.37,2013-03-06 01:50:00,
2013-03-05 20:55:00,28.3,25.5,30.14,SE,146,0.0,0.0,89,0.00,SCT,,0.01,0.0,WeatherDisplay:10.37,2013-03-06 01:55:00,
2013-03-05 21:00:00,28.5,25.7,30.14,SE,146,0.0,0.0,89,0.00,SCT,,0.01,0.0,WeatherDisplay:10.37,2013-03-06 02:00:00,
2013-03-05 21:05:00,28.6,25.8,30.14,SE,146,1.0,2.0,89,0.00,SCT,,0.01,0.0,WeatherDisplay:10.37,2013-03-06 02:05:00,
2013-03-05 21:10:00,28.8,26.0,30.14,SE,146,0.0,0.0,89,0.00,SCT,,0.01,0.0,WeatherDisplay:10.37,2013-03-06 02:10:00,
2013-03-05 21:15:00,28.9,26.0,30.14,SE,146,0.0,0.0,89,0.00,SCT,,0.01,0.0,WeatherDisplay:10.37,2013-03-06 02:15:00,
2013-03-05 21:20:00,29.0,26.2,30.14,SE,146,0.0,0.0,89,0.00,BKN,,0.01,0.0,WeatherDisplay:10.37,2013-03-06 02:20:00,
2013-03-05 21:25:00,29.1,26.3,30.14,SE,146,0.0,0.0,89,0.00,BKN,,0.01,0.0,WeatherDisplay:10.37,2013-03-06 02:25:00,
2013-03-05 21:30:00,29.3,26.2,30.14,SE,146,0.0,0.0,88,0.00,BKN,,0.01,0.0,WeatherDisplay:10.37,2013-03-06 02:30:00,
2013-03-05 21:35:00,29.4,26.6,30.14,SE,146,0.0,0.0,89,0.00,BKN,,0.01,0.0,WeatherDisplay:10.37,2013-03-06 02:35:00,
2013-03-05 21:40:00,29.4,26.3,30.14,SE,146,0.0,0.0,88,0.00,BKN,,0.01,0.0,WeatherDisplay:10.37,2013-03-06 02:40:00,
2013-03-05 21:45:00,29.4,26.3,30.14,SE,146,0.0,1.0,88,0.00,BKN,,0.01,0.0,WeatherDisplay:10.37,2013-03-06 02:45:00,
2013-03-05 21:50:00,29.6,26.7,30.14,East,92,1.0,3.0,89,0.00,BKN,,0.01,0.0,WeatherDisplay:10.37,2013-03-06 02:50:00,
2013-03-05 21:55:00,29.8,27.0,30.14,NNE,28,1.0,3.0,89,0.00,BKN,,0.01,0.0,WeatherDisplay:10.37,2013-03-06 02:55:00,
2013-03-05 22:00:00,30.0,27.2,30.13,North,11,3.5,3.5,89,0.00,BKN,,0.01,0.0,WeatherDisplay:10.37,2013-03-06 03:00:00,
2013-03-05 22:05:00,30.4,27.8,30.13,NNE,17,3.5,3.5,90,0.00,BKN,,0.01,0.0,WeatherDisplay:10.37,2013-03-06 03:05:00,
2013-03-05 22:10:00,30.8,28.2,30.14,North,5,3.5,3.5,90,0.00,BKN,,0.01,0.0,WeatherDisplay:10.37,2013-03-06 03:10:00,
2013-03-05 22:15:00,31.2,28.3,30.14,North,5,3.5,3.5,89,0.00,BKN,,0.01,0.0,WeatherDisplay:10.37,2013-03-06 03:15:00,
2013-03-05 22:20:00,31.4,28.5,30.14,North,5,1.0,3.0,89,0.00,OVC,,0.01,0.0,WeatherDisplay:10.37,2013-03-06 03:20:00,
2013-03-05 22:25:00,31.6,28.7,30.14,North,9,5.8,5.8,89,0.00,OVC,,0.01,0.0,WeatherDisplay:10.37,2013-03-06 03:25:00,
2013-03-05 22:30:00,31.8,28.7,30.14,NNE,12,4.0,4.0,88,0.00,OVC,,0.01,0.0,WeatherDisplay:10.37,2013-03-06 03:30:00,
2013-03-05 22:35:00,32.0,28.8,30.14,NNE,12,3.0,3.0,88,0.00,OVC,,0.01,0.0,WeatherDisplay:10.37,2013-03-06 03:35:00,
2013-03-05 22:40:00,32.1,28.9,30.14,NNE,13,3.5,3.5,88,0.00,OVC,,0.01,0.0,WeatherDisplay:10.37,2013-03-06 03:40:00,
2013-03-05 22:45:00,32.2,29.0,30.14,NNE,13,2.0,4.0,88,0.00,OVC,,0.01,0.0,WeatherDisplay:10.37,2013-03-06 03:45:00,
2013-03-05 22:50:00,32.3,29.1,30.14,NE,51,7.0,7.0,88,0.00,OVC,,0.01,0.0,WeatherDisplay:10.37,2013-03-06 03:50:00,
2013-03-05 22:55:00,32.5,29.3,30.14,NNE,30,6.0,10.0,88,0.00,OVC,,0.01,0.0,WeatherDisplay:10.37,2013-03-06 03:55:00,
2013-03-05 23:00:00,32.7,29.8,30.14,NE,51,6.9,6.9,89,0.00,OVC,,0.01,0.0,WeatherDisplay:10.37,2013-03-06 04:00:00,
2013-03-05 23:05:00,33.0,29.8,30.14,NE,50,6.0,9.0,88,0.00,OVC,,0.01,0.0,WeatherDisplay:10.37,2013-03-06 04:05:00,
2013-03-05 23:10:00,33.2,30.0,30.14,ENE,57,6.9,6.9,88,0.00,OVC,,0.01,0.0,WeatherDisplay:10.37,2013-03-06 04:10:00,
2013-03-05 23:15:00,33.3,30.1,30.14,NE,38,3.0,12.0,88,0.00,OVC,,0.01,0.0,WeatherDisplay:10.37,2013-03-06 04:15:00,
2013-03-05 23:20:00,33.4,30.2,30.14,NE,44,10.4,10.4,88,0.00,OVC,,0.01,0.0,WeatherDisplay:10.37,2013-03-06 04:20:00,
2013-03-05 23:25:00,33.4,30.2,30.14,NE,44,3.0,12.0,88,0.00,OVC,,0.01,0.0,WeatherDisplay:10.37,2013-03-06 04:25:00,
2013-03-05 23:30:00,33.4,30.2,30.14,NE,36,10.0,10.0,88,0.00,OVC,,0.01,0.0,WeatherDisplay:10.37,2013-03-06 04:30:00,
2013-03-05 23:35:00,33.4,29.9,30.14,NNE,32,6.0,12.0,87,0.00,OVC,,0.01,0.0,WeatherDisplay:10.37,2013-03-06 04:35:00,
2013-03-05 23:40:00,33.3,29.9,30.14,NNE,22,5.0,13.0,87,0.00,OVC,,0.01,0.0,WeatherDisplay:10.37,2013-03-06 04:40:00,
2013-03-05 23:45:00,33.3,29.8,30.14,North,360,12.7,12.7,87,0.00,OVC,,0.01,0.0,WeatherDisplay:10.37,2013-03-06 04:45:00,
2013-03-05 23:50:00,33.3,29.8,30.14,NE,53,7.0,13.0,87,0.00,OVC,,0.01,0.0,WeatherDisplay:10.37,2013-03-06 04:50:00,
2013-03-05 23:55:00,33.3,29.8,30.14,NE,38,8.1,8.1,87,0.00,OVC,,0.01,0.0,WeatherDisplay:10.37,2013-03-06 04:55:00,